Location: Altavilla Irpina
(41.0000°N, 14.7833°E)
Time: 09:56:15
(UTC+00:00)

Cosmos 2208 Rocket - Pass Details

Date: 19 May 2025
Orbit: 752 x 801 km, 74.0° (Epoch: 23 June)

Event Time Altitude Azimuth Distance (km) Brightness Sun altitude
Exits shadow 20:55:04 21° 217° (SW) 1,738 5.6 -22.7°
Maximum altitude 20:58:41 60° 292° (WNW) 900 4.5 -23.1°
Drops below altitude 10° 21:03:58 10° 12° (NNE) 2,346 7.1 -23.6°
Sets 21:06:23 0° 16° (NNE) 3,270 7.9 -23.8°
